EDW91CD LIEO-LSZH

Flight info

Callsign EDW91CD
Flight time N/A
Altitude FL360
Route OKIV7K OKIVA P980 DIKEL RATAP MEGER OLETI CANNE Z651 KELIP KELI3G
Aircraft A320/M-SDE3FGHIRWY/LB1

Departure

Time 2026-04-28 18:07
Airport Olbia Costa Smeralda Airport (LIEO)

Arrival

Time N/A
Airport Zürich Airport (LSZH)
Time Latitude Longitude Altitude Speed Heading
2026-04-28 17:26 40.90225 9.51617 34 ft 0 kts 325°
2026-04-28 18:00 40.90210 9.51631 33 ft 4 kts 315°
2026-04-28 18:00 40.90194 9.51659 32 ft 4 kts 293°
2026-04-28 18:00 40.90188 9.51691 34 ft 4 kts 254°
2026-04-28 18:01 40.90192 9.51704 34 ft 0 kts 235°
2026-04-28 18:03 40.90170 9.51664 34 ft 17 kts 234°
2026-04-28 18:03 40.90120 9.51565 33 ft 11 kts 235°
2026-04-28 18:03 40.90079 9.51492 34 ft 9 kts 222°
2026-04-28 18:04 40.90028 9.51501 34 ft 7 kts 151°
2026-04-28 18:04 40.89966 9.51508 34 ft 12 kts 195°
2026-04-28 18:04 40.89897 9.51433 34 ft 14 kts 235°
2026-04-28 18:04 40.89842 9.51325 34 ft 15 kts 236°
2026-04-28 18:05 40.89780 9.51207 34 ft 16 kts 236°
2026-04-28 18:05 40.89742 9.51137 34 ft 10 kts 229°
2026-04-28 18:05 40.89670 9.51123 34 ft 4 kts 154°
2026-04-28 18:05 40.89662 9.51129 34 ft 0 kts 151°
2026-04-28 18:06 40.89637 9.51191 34 ft 13 kts 107°
2026-04-28 18:06 40.89628 9.51271 35 ft 8 kts 88°
2026-04-28 18:07 40.89724 9.51489 34 ft 63 kts 53°
2026-04-28 18:07 40.90105 9.52221 34 ft 128 kts 55°
2026-04-28 18:07 40.90704 9.53372 149 ft 166 kts 56°
2026-04-28 18:07 40.91363 9.54637 793 ft 168 kts 55°
2026-04-28 18:08 40.92027 9.55895 1528 ft 166 kts 55°
2026-04-28 18:08 40.92700 9.57164 2071 ft 176 kts 55°
2026-04-28 18:08 40.93448 9.58567 2374 ft 198 kts 55°
2026-04-28 18:08 40.94284 9.60137 2645 ft 220 kts 55°
2026-04-28 18:09 40.95202 9.61857 3011 ft 240 kts 54°
2026-04-28 18:09 40.96189 9.63706 3378 ft 253 kts 54°
2026-04-28 18:09 40.97246 9.65600 4194 ft 254 kts 47°
2026-04-28 18:09 40.98728 9.66795 5143 ft 254 kts 11°
2026-04-28 18:10 41.00514 9.66681 5708 ft 269 kts 339°
2026-04-28 18:10 41.02203 9.65550 6448 ft 276 kts 326°
2026-04-28 18:10 41.03774 9.64069 7299 ft 279 kts 322°
2026-04-28 18:10 41.05313 9.62481 8142 ft 283 kts 321°
2026-04-28 18:11 41.06877 9.60878 8971 ft 287 kts 322°
2026-04-28 18:11 41.08344 9.59080 9760 ft 290 kts 309°
2026-04-28 18:11 41.09530 9.56893 10385 ft 301 kts 304°
2026-04-28 18:11 41.10776 9.54534 10638 ft 325 kts 305°
2026-04-28 18:12 41.12141 9.52021 10900 ft 345 kts 305°
2026-04-28 18:12 41.13572 9.49417 11497 ft 353 kts 306°
2026-04-28 18:12 41.15027 9.46776 12195 ft 358 kts 306°
2026-04-28 18:12 41.16500 9.44101 12897 ft 361 kts 306°
2026-04-28 18:13 41.17982 9.41396 13581 ft 365 kts 305°
2026-04-28 18:13 41.19474 9.38657 14241 ft 369 kts 305°
2026-04-28 18:13 41.20430 9.36895 14659 ft 371 kts 305°
2026-04-28 18:13 41.21937 9.34107 15293 ft 374 kts 305°
2026-04-28 18:14 41.23437 9.31270 15907 ft 378 kts 303°
2026-04-28 18:14 41.24890 9.28350 16517 ft 381 kts 302°
2026-04-28 18:14 41.26317 9.25372 17102 ft 385 kts 302°
2026-04-28 18:14 41.27742 9.22354 17669 ft 388 kts 302°
2026-04-28 18:15 41.29180 9.19307 18220 ft 391 kts 302°
2026-04-28 18:15 41.30760 9.16357 18743 ft 395 kts 311°
2026-04-28 18:15 41.32799 9.13908 19260 ft 399 kts 324°
2026-04-28 18:15 41.35225 9.12116 19749 ft 402 kts 338°
2026-04-28 18:16 41.37915 9.11088 20254 ft 406 kts 351°
2026-04-28 18:16 41.40736 9.10871 20736 ft 409 kts
2026-04-28 18:16 41.43584 9.10972 21213 ft 412 kts
2026-04-28 18:16 41.46451 9.11076 21675 ft 415 kts
2026-04-28 18:17 41.49342 9.11179 22126 ft 418 kts
2026-04-28 18:17 41.52250 9.11279 22569 ft 420 kts
2026-04-28 18:17 41.55177 9.11378 23001 ft 423 kts
2026-04-28 18:17 41.58123 9.11427 23421 ft 426 kts 360°
2026-04-28 18:18 41.61086 9.11414 23832 ft 428 kts 359°
2026-04-28 18:18 41.64070 9.11364 24237 ft 431 kts 359°
2026-04-28 18:18 41.67071 9.11302 24622 ft 433 kts 359°
2026-04-28 18:18 41.69079 9.11262 24876 ft 435 kts 359°
2026-04-28 18:19 41.73121 9.11201 25356 ft 438 kts 359°
2026-04-28 18:19 41.76175 9.11171 25725 ft 441 kts 359°
2026-04-28 18:19 41.79240 9.11152 26079 ft 443 kts 359°
2026-04-28 18:19 41.82326 9.11138 26428 ft 446 kts 359°
2026-04-28 18:20 41.85429 9.11126 26773 ft 448 kts 359°
2026-04-28 18:20 41.88547 9.11110 27112 ft 450 kts 359°
2026-04-28 18:20 41.91679 9.11090 27439 ft 452 kts 359°
2026-04-28 18:20 41.94826 9.11066 27758 ft 454 kts 359°
2026-04-28 18:21 41.97991 9.11038 28065 ft 457 kts 359°
2026-04-28 18:21 42.01166 9.11010 28358 ft 459 kts 359°
2026-04-28 18:21 42.04357 9.10982 28643 ft 461 kts 359°
2026-04-28 18:21 42.07564 9.10954 28918 ft 463 kts 359°
2026-04-28 18:22 42.10781 9.10928 29191 ft 465 kts 359°
2026-04-28 18:22 42.14013 9.10904 29459 ft 466 kts 359°
2026-04-28 18:22 42.17259 9.10881 29720 ft 468 kts 359°
2026-04-28 18:22 42.20510 9.10859 30079 ft 467 kts 359°
2026-04-28 18:23 42.23752 9.10835 30455 ft 466 kts 359°
2026-04-28 18:23 42.26983 9.10810 30874 ft 464 kts 360°
2026-04-28 18:23 42.30167 9.10785 31637 ft 452 kts 360°
2026-04-28 18:23 42.33283 9.10760 32218 ft 446 kts 360°
2026-04-28 18:24 42.36367 9.10732 32668 ft 443 kts 360°
2026-04-28 18:24 42.38417 9.10713 32952 ft 441 kts 360°
2026-04-28 18:24 42.42492 9.10674 33468 ft 439 kts 360°
2026-04-28 18:24 42.45534 9.10647 33841 ft 438 kts 360°
2026-04-28 18:25 42.48570 9.10622 34183 ft 436 kts 359°
2026-04-28 18:25 42.51596 9.10599 34478 ft 436 kts 359°
2026-04-28 18:25 42.54617 9.10577 34767 ft 435 kts 359°
2026-04-28 18:26 42.60650 9.10533 35308 ft 434 kts 359°
2026-04-28 18:26 42.63661 9.10508 35568 ft 433 kts 359°
2026-04-28 18:26 42.66653 9.10484 35817 ft 433 kts 359°
2026-04-28 18:26 42.69680 9.10463 35976 ft 434 kts 359°
2026-04-28 18:27 42.72693 9.10494 36010 ft 435 kts
2026-04-28 18:27 42.78711 9.11192 36010 ft 435 kts
2026-04-28 18:28 42.84726 9.11896 36013 ft 434 kts
2026-04-28 18:28 42.90735 9.12592 36014 ft 434 kts
2026-04-28 18:29 42.96740 9.13295 36014 ft 434 kts
2026-04-28 18:29 43.02744 9.13999 36022 ft 434 kts
2026-04-28 18:30 43.08749 9.14707 36029 ft 434 kts
2026-04-28 18:30 43.14751 9.15416 36028 ft 434 kts
2026-04-28 18:31 43.20748 9.16118 36029 ft 433 kts
2026-04-28 18:31 43.26741 9.16818 36032 ft 433 kts
2026-04-28 18:32 43.32733 9.17483 36032 ft 432 kts
2026-04-28 18:32 43.38717 9.17042 36030 ft 432 kts 355°
2026-04-28 18:33 43.44696 9.16452 36034 ft 432 kts 355°
2026-04-28 18:33 43.50671 9.15850 36033 ft 431 kts 355°
2026-04-28 18:34 43.56643 9.15250 36037 ft 431 kts 355°
2026-04-28 18:34 43.62613 9.14658 36039 ft 431 kts 355°
2026-04-28 18:35 43.68578 9.14056 36034 ft 431 kts 355°
2026-04-28 18:35 43.73547 9.13557 36033 ft 430 kts 355°
2026-04-28 18:37 43.92060 9.11700 36037 ft 430 kts 355°
2026-04-28 18:37 43.98024 9.11100 36038 ft 431 kts 355°
2026-04-28 18:38 44.03990 9.10496 36038 ft 431 kts 355°
2026-04-28 18:38 44.09955 9.09893 36042 ft 431 kts 355°
2026-04-28 18:39 44.15919 9.09275 36037 ft 431 kts 355°
2026-04-28 18:39 44.21883 9.08658 36021 ft 431 kts 355°
2026-04-28 18:40 44.27846 9.08052 36026 ft 431 kts 355°
2026-04-28 18:40 44.33810 9.07452 36035 ft 431 kts 354°
2026-04-28 18:41 44.39773 9.06837 36035 ft 430 kts 354°
2026-04-28 18:41 44.45741 9.06227 36041 ft 431 kts 354°
2026-04-28 18:42 44.51710 9.05618 36043 ft 431 kts 354°
2026-04-28 18:42 44.57677 9.05005 36047 ft 431 kts 354°
2026-04-28 18:43 44.63642 9.04380 36046 ft 431 kts 354°
2026-04-28 18:43 44.69601 9.03762 36038 ft 430 kts 354°
2026-04-28 18:44 44.75560 9.03145 36046 ft 430 kts 354°
2026-04-28 18:44 44.84491 9.02212 36044 ft 430 kts 354°
2026-04-28 18:45 44.90438 9.01592 36038 ft 429 kts 354°
2026-04-28 18:45 44.96385 9.00971 36042 ft 429 kts 354°
2026-04-28 18:46 45.02327 9.00353 36030 ft 429 kts 353°
2026-04-28 18:46 45.08265 8.99737 36068 ft 428 kts 354°
2026-04-28 18:47 45.14195 8.99122 35889 ft 424 kts 353°
2026-04-28 18:47 45.17110 8.98810 35708 ft 419 kts 353°
2026-04-28 18:47 45.20002 8.98495 35537 ft 417 kts 353°
2026-04-28 18:48 45.22887 8.98180 35354 ft 417 kts 353°
2026-04-28 18:48 45.25776 8.97871 35184 ft 417 kts 353°
2026-04-28 18:48 45.28577 8.97582 35012 ft 417 kts 353°
2026-04-28 18:48 45.31467 8.97288 34856 ft 418 kts 353°
2026-04-28 18:49 45.34361 8.96989 34684 ft 418 kts 353°
2026-04-28 18:49 45.36288 8.96786 34573 ft 418 kts 353°
2026-04-28 18:49 45.40167 8.96382 34375 ft 423 kts 354°
2026-04-28 18:49 45.43100 8.96090 34303 ft 425 kts 354°
2026-04-28 18:50 45.46058 8.95799 34174 ft 429 kts 354°
2026-04-28 18:50 45.49024 8.95509 34021 ft 429 kts 354°
2026-04-28 18:50 45.51997 8.95219 33722 ft 429 kts 354°
2026-04-28 18:50 45.54972 8.94932 33453 ft 429 kts 354°
2026-04-28 18:51 45.57950 8.94647 33267 ft 430 kts 354°
2026-04-28 18:51 45.60930 8.94358 33083 ft 429 kts 353°
2026-04-28 18:51 45.63883 8.94006 32895 ft 425 kts 352°
2026-04-28 18:51 45.66818 8.93619 32711 ft 423 kts 352°
2026-04-28 18:52 45.69740 8.93236 32528 ft 424 kts 352°
2026-04-28 18:52 45.72670 8.92877 32348 ft 424 kts 353°
2026-04-28 18:52 45.75612 8.92540 32169 ft 425 kts 353°
2026-04-28 18:52 45.78552 8.92223 31997 ft 425 kts 353°
2026-04-28 18:53 45.81501 8.91914 31844 ft 426 kts 353°
2026-04-28 18:53 45.84458 8.91603 31670 ft 427 kts 353°
2026-04-28 18:53 45.87418 8.91288 31497 ft 428 kts 353°
2026-04-28 18:53 45.90387 8.90970 31322 ft 429 kts 353°
2026-04-28 18:54 45.93355 8.90651 31149 ft 429 kts 353°
2026-04-28 18:54 45.96331 8.90330 30980 ft 430 kts 353°